SCP
0 0 0 1 1 0 0 0 0 0 0 0 0 0 0 0 0 0 0 0 0 0 1 1 1 1 1 1 2 2 1 1 1 1 1 1 1 1 1 1 1 1 0 0 0 0 0 0 0
0 0 0 1 1 0 0 0 0 0 0 0 0 0 0 0 0 0 0 0 0 0 1 1 1 1 1 1 1 2 1 1 1 1 1 1 1 1 1 1 1 1 0 0 0 0 0 0 0
0 0 1 1 0 0 0 0 0 0 0 0 0 0 0 0 0 0 0 0 0 0 1 1 1 1 1 1 1 1 1 1 1 1 1 1 1 1 1 1 1 1 0 0 0 1 1 0 0
0 1 1 1 0 0 0 0 0 0 0 0 0 0 0 0 0 0 0 0 0 0 1 1 1 1 0 1 1 1 1 1 1 1 1 1 1 1 1 1 1 1 0 0 1 1 1 0 0
1 1 1 1 0 0 0 0 0 0 0 0 0 0 0 0 0 0 0 0 0 0 1 1 1 1 1 0 0 1 1 1 1 1 1 1 1 1 1 1 1 1 0 1 1 1 1 0 0
1 1 1 0 0 0 0 0 0 0 0 0 0 0 0 0 0 0 0 0 0 0 1 1 1 1 1 0 0 0 1 1 1 1 1 1 1 1 1 1 1 1 1 1 1 1 1 1 0
1 1 1 0 0 0 0 0 0 0 0 0 0 0 0 0 0 0 0 0 0 0 1 1 1 1 1 0 0 0 1 1 1 1 1 1 1 1 1 1 1 1 1 1 1 1 1 1 0
0 0 0 0 0 0 0 0 0 0 0 0 0 0 0 0 0 0 0 0 0 0 1 1 1 1 1 0 0 0 0 0 1 1 1 0 0 1 1 1 1 1 1 1 1 1 1 1 0
0 0 0 0 0 0 0 0 0 0 0 0 0 0 0 0 0 0 0 0 0 0 1 1 1 1 1 1 0 0 0 0 0 1 0 0 1 1 1 0 0 1 1 0 0 0 1 0 0
0 0 0 0 0 0 0 0 0 0 0 0 0 0 0 0 0 1 1 0 0 0 0 1 1 1 1 1 1 1 1 1 1 1 1 1 1 1 1 0 0 0 0 0 0 0 0 0 0
0 0 0 0 0 0 0 0 0 0 0 0 0 0 0 0 0 0 0 1 0 0 0 1 1 1 1 1 1 1 1 1 1 1 1 1 1 1 1 0 0 0 0 0 0 0 0 0 0
0 0 0 0 0 0 0 0 0 0 0 0 0 0 0 0 0 0 1 1 1 1 1 1 1 1 1 1 1 1 1 1 1 1 1 1 2 1 1 0 0 0 0 1 1 1 0 0 0
0 0 0 0 0 0 0 0 0 0 0 0 0 0 0 0 0 0 1 1 1 1 1 1 1 1 1 1 1 1 1 1 1 1 1 1 1 1 1 0 0 0 0 1 1 1 1 0 0
0 0 0 0 0 0 0 0 0 0 0 0 0 0 0 0 0 0 1 1 1 1 1 0 1 1 1 1 1 1 1 1 1 1 1 1 1 1 1 0 0 0 0 1 1 1 1 0 0
0 0 0 0 0 0 0 0 0 0 0 0 0 0 0 0 0 0 0 1 1 0 0 0 0 1 1 1 0 0 1 1 1 1 1 1 1 1 1 0 0 0 0 1 1 1 1 0 0
0 0 0 0 0 0 0 0 0 0 0 0 0 0 0 0 0 0 0 0 0 0 1 1 1 1 1 1 0 0 0 1 1 2 1 1 1 1 0 0 0 0 0 1 1 1 1 0 0
0 0 0 0 0 0 0 0 0 0 0 0 0 0 0 0 0 0 0 0 0 0 1 1 1 1 1 1 1 0 1 1 1 2 2 1 1 0 0 0 0 0 0 1 1 1 1 1 0
0 0 0 0 0 0 0 0 0 0 0 0 0 0 0 0 0 0 0 0 0 0 0 1 1 1 1 1 1 1 1 1 2 2 1 1 0 0 0 0 0 0 0 0 1 1 1 1 0
0 0 0 0 0 0 0 0 0 0 0 0 0 0 0 0 0 0 0 0 0 0 0 0 1 1 1 1 1 1 1 1 1 1 1 1 0 0 0 0 0 0 0 0 0 0 1 1 0
0 0 0 0 0 0 0 0 0 0 0 0 0 0 0 0 0 0 0 0 0 0 0 0 1 1 1 1 1 1 1 1 1 1 1 0 0 0 0 0 0 0 0 0 0 0 0 0 1
0 0 0 0 0 0 0 0 0 0 0 0 0 0 0 0 0 0 0 0 0 0 0 0 0 1 1 1 1 1 1 1 1 0 0 0 0 0 0 0 0 0 0 0 0 0 0 0 0
0 0 0 0 0 0 0 0 0 0 0 0 0 0 0 0 0 0 0 0 0 0 0 0 0 0 0 1 1 1 1 1 1 0 0 0 0 0 0 0 0 0 0 0 0 0 0 0 0
0 0 0 0 0 0 0 0 0 0 0 0 0 0 0 0 0 0 0 0 0 0 0 0 0 0 0 0 1 1 1 1 1 0 0 0 0 0 0 0 0 0 0 0 0 0 0 0 0
0 0 0 0 0 0 0 0 0 0 0 0 0 0 0 0 0 0 0 0 0 0 0 0 0 0 0 0 0 1 1 1 1 1 0 0 0 0 0 0 0 0 0 0 0 0 0 0 0
0 0 0 0 0 0 0 0 0 0 0 0 0 0 0 0 0 0 0 0 0 0 0 0 0 0 0 0 0 0 0 1 1 1 0 0 0 0 0 0 0 0 0 0 0 0 0 0 0
0 0 0 0 0 0 0 0 0 0 0 0 0 0 0 0 0 0 0 0 0 0 0 0 0 0 0 0 0 0 0 0 0 1 1 0 0 0 0 0 0 0 0 0 0 0 0 0 0
0 0 0 0 0 0 0 0 0 0 0 0 0 0 0 0 0 0 0 0 0 0 0 0 0 0 0 0 0 0 0 0 0 0 0 0 0 0 0 0 0 0 0 0 0 0 0 0 0
0 0 0 0 0 0 0 0 0 0 0 0 0 0 0 0 0 0 0 0 0 0 0 0 0 0 0 0 0 0 0 0 0 0 0 0 0 0 0 0 0 0 0 0 0 0 0 0 0
0 0 0 0 0 0 0 0 0 0 0 0 0 0 0 0 0 0 0 0 0 0 0 0 0 0 0 0 0 0 0 0 0 0 0 0 0 0 0 0 0 0 0 0 0 0 0 0 0
0 0 0 0 0 0 0 0 0 0 0 0 0 0 0 0 0 0 0 0 0 0 0 0 0 0 0 0 0 0 0 0 0 0 0 0 0 0 0 0 0 0 0 0 0 0 0 0 0
Wind_Speed
3 2 2 2 4 4 6 4 3 3 2 1 0 1 2 2 2 2 4 3 4 6 7 8 6 8 9 9 9 9 9 9 8 8 8 8 8 8 7 7 7 7 7 8 8 9 9 9 9
3 2 3 3 5 7 6 4 5 3 0 2 1 2 2 1 1 1 2 3 5 6 7 7 7 8 8 9 8 8 8 8 8 7 7 7 7 7 7 7 6 6 7 8 8 8 8 8 8
1 2 3 4 6 7 4 3 3 1 1 2 2 1 1 0 1 1 2 4 5 6 6 7 7 8 8 8 8 8 7 7 7 7 7 7 7 7 7 7 6 6 7 7 7 8 8 7 7
2 3 3 5 8 6 4 2 2 2 3 2 2 2 1 0 0 1 3 5 5 6 6 7 6 7 8 8 8 7 7 7 7 7 7 7 7 7 7 7 6 6 6 6 6 7 7 6 6
2 3 5 7 8 5 4 3 4 4 3 3 3 3 2 1 0 2 4 5 5 5 5 6 6 6 7 7 7 7 7 7 6 6 6 6 7 6 6 6 6 5 5 5 6 6 6 6 6
3 3 6 8 8 6 5 4 5 6 4 3 4 3 2 2 2 3 4 4 5 5 5 5 5 4 5 5 6 6 6 6 6 5 5 6 6 6 5 5 5 5 5 5 5 6 5 5 5
3 4 6 7 6 7 4 3 5 6 6 4 3 4 3 3 1 3 4 4 4 4 5 5 5 5 4 4 4 4 5 5 5 5 5 6 6 6 5 5 5 5 4 4 5 5 5 4 4
2 3 5 6 7 6 2 3 2 5 5 1 3 5 3 1 2 3 3 3 3 4 4 4 5 5 5 5 4 4 4 4 5 5 5 5 5 5 5 4 4 4 4 4 4 4 4 4 4
3 5 7 6 6 3 2 3 2 2 3 2 3 4 3 3 4 4 3 3 4 4 4 4 4 4 4 4 4 4 4 4 4 4 5 4 4 4 4 4 4 4 3 3 4 4 4 3 3
4 6 7 3 3 3 3 4 3 4 5 5 5 4 1 3 5 5 6 6 6 6 5 5 5 4 4 3 3 3 3 4 3 3 4 3 3 2 2 5 5 4 3 3 3 3 3 1 1
3 5 3 3 4 4 4 4 3 5 7 8 7 6 5 6 6 6 7 7 7 6 5 5 5 5 4 3 3 2 2 2 3 4 4 3 3 2 2 2 3 2 2 2 2 2 1 0 0
3 4 4 4 3 4 5 4 5 7 8 5 5 4 5 7 8 8 8 7 6 6 6 5 5 5 5 4 3 3 3 2 3 3 4 3 2 2 2 2 2 2 1 1 1 1 1 1 1
5 4 3 4 4 4 5 8 7 9 9 6 4 4 6 7 8 8 7 7 6 7 6 6 6 6 5 5 4 4 3 3 3 3 4 4 3 3 2 2 2 2 1 1 1 1 1 1 1
2 4 5 5 5 4 6 8 7 10 6 6 6 6 7 7 8 7 7 7 7 7 7 6 7 6 6 5 4 4 4 3 4 4 4 5 3 3 3 2 2 1 1 1 1 1 1 1 1
2 4 5 4 4 3 5 9 10 8 4 6 6 7 7 8 7 8 8 8 7 7 7 7 7 7 7 6 5 4 4 4 4 4 4 5 4 3 3 2 2 2 1 1 1 1 1 1 2
3 4 5 3 3 3 6 12 6 3 5 8 8 7 8 8 7 7 7 7 7 6 7 7 5 7 7 6 5 4 4 4 4 3 4 5 4 4 3 3 2 2 2 2 2 2 2 2 2
3 5 7 4 2 2 7 12 6 3 6 9 8 8 8 7 7 6 6 6 6 6 6 7 7 7 6 6 5 4 4 4 4 3 3 4 5 5 4 3 2 3 2 2 2 2 2 2 2
4 6 6 7 2 4 9 13 12 6 7 9 8 8 7 7 7 5 5 5 5 5 6 6 7 7 6 5 4 3 4 3 3 3 3 4 4 5 4 3 3 3 2 2 2 2 2 2 2
5 7 10 7 3 5 10 14 14 10 7 8 7 6 6 7 6 4 4 4 4 4 5 6 7 7 6 5 5 4 4 4 3 3 4 5 4 4 4 3 4 3 3 3 3 2 2 2 1
6 8 9 5 2 5 9 14 12 8 8 8 8 7 7 6 4 3 3 3 4 5 5 6 6 6 6 5 4 3 3 3 3 3 4 5 5 4 4 4 4 4 3 4 4 3 2 1 2
7 8 8 6 5 4 8 10 8 5 5 6 6 6 5 6 5 4 3 3 4 4 5 5 6 6 6 6 4 3 3 2 3 3 3 4 5 5 4 5 4 4 4 4 4 4 4 3 2
8 5 6 6 6 4 3 8 6 4 5 5 4 4 4 4 4 4 3 3 4 4 3 4 5 5 5 6 6 7 5 5 4 3 3 4 5 5 5 5 5 4 4 4 4 5 4 4 3
4 1 4 5 6 6 4 7 7 2 6 5 5 4 4 4 3 3 3 3 2 2 2 3 3 4 4 5 7 7 6 4 3 3 4 4 4 5 5 5 5 5 5 5 5 5 5 4 4
2 1 1 2 4 6 6 7 8 4 5 5 4 3 3 2 2 2 1 1 1 1 1 2 3 3 3 4 6 7 7 6 5 5 5 4 4 4 5 5 5 5 5 5 5 5 6 5 5
3 2 2 2 3 5 3 7 10 5 5 5 5 3 2 2 1 1 0 0 0 0 0 1 2 2 2 4 5 6 7 7 7 6 5 5 4 4 5 5 5 5 6 6 5 5 5 6 6
6 5 4 4 5 4 3 8 6 3 4 4 4 4 2 2 1 1 1 1 1 0 0 1 1 1 1 2 3 4 5 4 4 5 4 4 4 4 5 6 6 6 6 5 5 5 5 5 5
5 5 2 2 1 5 6 6 7 4 4 4 3 2 2 2 1 1 1 1 1 1 0 1 1 1 1 2 2 2 3 4 4 4 4 4 4 3 5 5 5 5 5 5 5 4 5 5 5
3 3 4 4 4 7 7 6 5 4 4 3 2 2 2 2 1 1 1 1 1 1 1 1 1 1 1 1 1 1 2 3 3 3 4 4 4 4 4 5 5 5 5 5 5 4 4 5 5
5 5 5 4 4 5 6 5 2 4 3 3 3 3 2 2 2 2 2 1 1 1 0 1 1 1 1 1 1 2 2 2 3 3 4 4 4 4 4 5 5 5 5 5 5 5 5 5 5
6 6 7 5 5 5 6 7 1 2 3 3 3 3 2 2 2 2 2 2 1 1 1 1 1 1 1 1 1 2 2 2 3 3 3 3 4 4 4 4 5 5 5 5 5 5 6 6 6
Wind_Direction
329 311 257 227 221 226 236 220 219 188 183 140 329 243 248 250 272 22 70 136 146 155 159 160 150 142 145 142 140 138 136 134 133 128 124 121 118 114 110 104 97 95 92 87 84 83 78 73 69
326 277 227 225 237 230 225 212 213 217 129 124 179 218 215 229 345 50 114 146 159 155 157 157 140 137 138 140 138 137 138 137 137 132 126 122 120 118 113 107 99 95 93 90 85 83 80 76 69
281 280 237 220 230 241 227 188 208 179 173 198 193 237 267 228 144 143 86 151 157 154 158 144 137 138 137 137 137 139 141 143 143 139 133 128 123 121 116 110 102 95 93 91 86 83 79 76 71
236 203 217 233 232 241 258 218 191 186 186 207 216 206 184 64 354 67 126 153 155 152 156 146 140 143 143 141 141 141 140 141 143 142 138 131 124 121 118 112 105 97 92 92 90 85 79 75 73
231 225 219 229 239 239 245 254 224 228 213 199 208 233 218 145 169 134 145 155 157 155 156 153 141 141 144 149 151 149 146 145 140 143 142 135 129 123 119 117 112 104 95 93 91 87 82 76 72
197 221 230 234 235 238 242 241 230 239 240 225 216 224 207 133 156 151 152 163 162 159 160 158 145 141 143 146 153 154 151 149 147 142 142 138 133 125 118 118 116 109 99 94 91 86 82 78 71
221 222 241 243 244 242 232 218 232 234 232 229 237 224 194 179 158 155 159 162 165 164 166 167 167 165 151 144 145 145 147 147 144 138 134 133 129 122 115 112 114 112 107 99 93 89 83 79 71
253 226 231 234 238 244 205 199 254 249 249 248 233 238 230 160 139 146 152 160 166 172 177 176 175 178 176 166 141 133 135 138 135 125 111 115 122 118 107 117 113 116 113 104 98 95 86 79 73
228 232 235 230 234 241 182 219 247 276 251 230 238 278 335 104 144 152 164 179 185 190 191 188 187 187 182 178 160 157 146 133 135 135 121 142 160 149 132 107 97 108 108 104 101 100 91 84 84
219 234 242 248 254 264 243 252 253 237 245 248 247 252 226 174 184 191 200 205 205 204 203 199 197 192 187 180 177 178 172 159 165 163 162 168 160 143 135 102 92 95 98 104 97 100 111 139 128
223 242 248 249 258 270 257 258 253 249 251 250 248 232 203 198 202 210 215 218 217 211 204 204 203 197 194 189 183 175 173 167 169 170 173 166 158 150 149 138 131 141 148 151 137 149 147 267 283
230 248 256 264 254 254 256 255 246 244 262 293 278 242 209 213 215 218 222 223 220 217 211 205 205 202 200 197 191 182 181 178 176 175 179 176 165 166 164 166 164 176 178 179 182 184 170 216 250
232 248 254 259 253 258 260 251 257 256 260 269 269 234 222 222 227 228 229 228 223 221 216 209 206 204 199 196 197 191 190 190 186 186 186 184 175 178 180 178 187 197 190 195 204 205 196 211 244
250 255 263 266 257 250 256 260 254 260 254 248 246 239 233 231 230 229 228 228 226 226 221 211 206 206 203 200 196 195 194 191 193 192 190 189 189 186 180 183 187 195 203 210 218 220 215 220 233
239 264 263 243 238 236 258 259 240 254 241 245 250 252 250 243 237 235 234 232 228 225 221 214 208 206 205 204 200 196 193 195 196 193 192 192 193 193 187 187 191 200 201 198 205 207 219 225 229
225 241 255 229 238 232 246 264 260 253 245 255 254 255 255 248 243 244 242 238 232 224 217 213 207 206 205 203 197 193 197 201 198 191 190 191 188 192 191 192 198 201 198 196 196 204 214 228 238
223 258 266 270 217 248 241 265 278 273 258 260 258 256 257 258 253 249 245 240 233 225 219 212 207 204 201 199 194 192 195 202 198 190 190 191 189 189 195 195 190 193 195 194 199 219 228 234 246
250 262 266 270 278 262 254 264 275 269 264 264 262 259 256 260 261 260 254 241 232 224 220 212 206 202 193 188 187 186 188 193 193 187 189 188 189 188 190 189 188 188 190 193 199 215 226 240 250
254 254 268 276 295 273 263 272 276 273 260 262 264 261 259 264 271 270 258 238 226 220 216 212 205 199 190 185 190 192 195 193 191 190 186 189 186 185 191 189 184 189 197 202 200 205 212 229 234
242 259 269 277 284 274 282 278 273 265 254 253 257 259 263 268 273 269 254 231 223 218 214 212 210 203 198 197 193 195 194 197 194 191 191 192 188 186 193 194 191 190 194 197 197 201 210 218 220
242 250 266 280 302 249 287 271 253 245 244 248 250 256 261 260 261 256 240 234 227 225 220 212 207 206 202 196 183 172 179 183 192 195 196 194 193 190 194 199 195 194 197 202 202 206 212 214 217
247 241 259 268 280 277 296 286 266 257 262 254 255 254 260 264 263 258 247 239 235 234 224 216 205 201 199 194 196 196 201 206 205 200 201 194 194 193 194 200 200 199 202 207 206 211 218 216 216
250 283 247 252 252 267 239 262 270 247 258 262 259 253 259 262 257 256 253 247 245 239 219 211 198 198 195 200 204 208 213 215 205 199 200 202 195 196 196 199 201 204 209 210 208 207 213 218 219
193 208 192 205 227 252 234 244 267 233 248 269 268 266 270 263 253 262 297 310 285 264 214 204 192 195 196 206 207 209 211 208 204 205 205 206 201 196 197 201 205 209 211 211 211 209 211 216 221
207 221 252 245 235 248 196 239 256 253 250 267 288 306 308 294 259 254 292 268 283 271 209 194 190 195 204 212 212 214 216 214 215 215 212 211 210 206 202 202 208 211 214 214 212 212 214 215 218
205 219 220 253 263 276 209 242 259 262 264 271 287 301 322 341 331 300 285 269 255 233 205 172 188 204 216 215 216 219 220 220 222 223 222 222 223 224 212 208 212 214 215 214 212 215 216 217 222
193 212 249 235 266 272 254 260 274 244 246 254 282 316 315 330 341 313 292 273 270 253 228 211 207 218 229 229 219 221 224 225 228 229 230 230 227 226 220 211 212 213 214 214 212 217 217 219 224
254 181 181 206 245 265 270 255 257 246 256 267 315 313 324 347 354 334 311 297 288 281 266 232 231 232 241 237 226 234 231 232 233 232 233 234 233 226 222 213 211 211 209 210 212 216 220 223 226
184 196 208 206 232 245 272 269 253 254 306 314 311 317 329 339 328 331 330 316 309 317 273 250 249 249 257 253 241 235 237 235 236 238 238 236 236 231 224 219 213 213 213 212 211 217 220 224 227
235 222 203 219 227 231 258 270 51 270 309 314 316 321 327 335 328 327 325 327 323 323 307 279 271 264 271 273 260 256 257 247 243 245 246 241 237 234 231 224 216 217 219 220 218 221 224 224 227